Regional Weather Roundup
Issued by NWS Wakefield, VA

Home | Current Version | Previous Version | Text Only | Print | Product List | Glossary Off
Versions: 1 2 3 4 5 6 7 8 9 10 11 12 13 14 15 16 17 18 19 20 21 22 23 24 25 26 27 28 29 30 31 32 33 34 35 36 37 38 39 40 41 42 43 44 45 46 47 48 49 50

000
ASUS41 KAKQ 290914
RWRAKQ

REGIONAL WEATHER ROUNDUP
NATIONAL WEATHER SERVICE WAKEFIELD VA
500 AM EDT SUN MAR 29 2015

Note: "fair" indicates few or no clouds below 12,000 feet with no
significant weather and/or obstructions to visibility. * = Denotes
station may not report precipitation (e.g., rain,snow,etc.),
thunder or fog.

VAZ042-051-052>054-056-291000-
NORTHERN VIRGINIA

CITY           SKY/WX    TMP DP  RH WIND       PRES   REMARKS
WASH NATIONAL  CLEAR     28   6  39 NW12      30.32R WCI  18
DULLES         CLEAR     24   6  46 NW10      30.31R WCI  14
FORT BELVOIR   CLEAR     26   5  40 NW8       30.32R
QUANTICO       CLEAR     28   6  39 NW8       30.34R
FREDERICKSBRG* CLEAR     28   8  42 NW5       30.32R
STAFFORD*      CLEAR     24   6  45 NW10      30.37R WCI  13
WARRENTON      CLEAR     25  13  61 NW3       30.31S
CULPEPER*      CLEAR     27   7  43 NW6       30.33R
MANASSAS*      CLEAR     25  10  54 NW8       30.33R
LEESBURG*      CLEAR     25  12  58 NW13      30.31S WCI  13
WINCHESTER     CLEAR     23   3  42 NW5       30.30R
FRONT ROYAL*   FAIR      23   7  50 CALM      30.30S
LURAY*         FAIR      25  10  54 E3        30.30R
$$

VAZ048-049-060>072-079>083-291000-
CENTRAL AND SOUTH CENTRAL VIRGINIA

CITY           SKY/WX    TMP DP  RH WIND       PRES   REMARKS
RICHMOND       CLEAR     27   9  46 N10G20    30.32R WCI  17
CHESTERFIELD*  NOT AVBL
PETERSBURG*    CLEAR     28  11  49 N6        30.33R
HANOVER        CLEAR     25   8  48 VRB5      30.34R
TAPPAHANNOCK*  CLEAR     28  -1  27 NW8G22    30.31S
QUINTON*       FAIR      27   9  46 NW3       30.32R
CHARLOTTSVILLE CLEAR     27   5  39 VRB5      30.30R
GORDONSVILLE*  FAIR      19  13  78 CALM      30.32R
ORANGE*        CLEAR     23  14  68 CALM      30.33R
LOUISA*        CLEAR     18  12  79 CALM      30.30R
BUMPASS*       FAIR      27   8  43 N5        30.31R
FARMVILLE*     CLEAR     25  14  63 CALM      30.32R
CREWE*         FAIR      25  11  55 MISG      30.32R
FORT PICKETT*  FAIR      23  11  61 W6        30.31R
CHASE CITY*    FAIR      27  13  55 CALM      30.32R
CLARKSVILLE*   FAIR      28  12  50 N3        30.32R
SOUTH HILL*    CLEAR     25  11  54 NW3       30.37R
LAWRENCEVILLE* FAIR      25  13  60 CALM      30.31R
EMPORIA*       CLEAR     27  12  54 CALM      30.33R
$$

VAZ088>098-291000-
SOUTHEAST VIRGINIA

CITY           SKY/WX    TMP DP  RH WIND       PRES   REMARKS
NORFOLK        CLEAR     31   6  35 NW9G25    30.29R
VIRGINIA BEACH PTCLDY    32  10  40 NW16      30.27R WCI  21
NORFOLK NAVAL  PTCLDY    34   8  33 NW16G26   30.30R WCI  24
WEST POINT*    CLEAR     30   8  39 NW7       30.32S
SALUDA*        FAIR      29   8  41 NW12G21   30.29R WCI  19
NEWPORT NEWS   CLEAR     31   8  38 NW10      30.30  WCI  22
LANGLEY AFB    CLEAR     29   7  40 N13       30.28R WCI  19
FORT EUSTIS    CLEAR     30  11  45 N10G20    30.28R WCI  21
WILLIAMSBURG*  CLEAR     30  12  47 N10       30.31R WCI  21
HR EXEC AP*    FAIR      30  10  43 NW5       30.31R
FRANKLIN*      CLEAR     26  14  61 CALM      30.32R
WAKEFIELD      CLEAR     26  14  60 CALM      30.32R
$$

VAZ020-022-025-037-045-291000-
WEST CENTRAL AND SOUTHWEST VIRGINIA

CITY           SKY/WX    TMP DP  RH WIND       PRES   REMARKS
STAUNTON*      CLEAR     18   9  68 CALM      30.29F
WAYNESBORO*    FAIR      22   5  48 CALM      30.26S
HOT SPRINGS VA CLEAR     13   5  69 NW15      30.09S WCI  -3
LYNCHBURG      CLEAR     26   6  42 NW3       30.31R
DANVILLE       CLEAR     28  12  51 N3        30.34R
SOUTH BOSTON*  FAIR      22  13  67 CALM      30.34R
MARTINSVILLE   CLEAR     19  14  79 NW3       30.35S
ROANOKE        CLEAR     26   6  42 NW10      30.32S WCI  16
BLACKSBURG     CLEAR     21   7  54 W7        30.29R
DUBLIN*        CLEAR     24   8  51 N5        30.28S
MARION*        CLEAR     23   7  50 W12       30.28R WCI  11
HILLSVILLE*    CLEAR     22   7  52 NW10      30.23R WCI  11
RICHLANDS*     FAIR      22   4  46 CALM      30.26S
WISE*          CLEAR     19   9  63 CALM      30.27S
ABINGDON*      CLEAR     24   9  52 CALM      30.30S
$$

MDZ021>025-VAZ099-100-291000-
SOUTHERN MARYLAND AND THE DELMARVA PENINSULA

CITY           SKY/WX    TMP DP  RH WIND       PRES   REMARKS
PATUXENT RIVER CLEAR     28   4  35 NW22G29   30.28R WCI  14
BAY BRIDGE APT   N/A     28   7  40 NW18G26   30.28R WCI  16
LEONARDTOWN    CLEAR     28   1  31 NW8       30.30R
DOVER          CLEAR     25   7  46 NW9       30.24R
GEORGETOWN     CLEAR     26   6  42 NW6       30.25R
EASTON         CLEAR     29  10  44 N13       30.30R WCI  19
CAMBRIDGE      CLEAR     32   7  34 N9        30.26R
SALISBURY      FAIR      26   8  46 NW14      30.25R WCI  14
OCEAN CITY     CLEAR     26  10  50 NW9G20    30.24R
WALLOPS ISLAND CLEAR     28  12  51 N10       30.26R WCI  19
ACCOMACK*      PTCLDY    30   9  40 NW14G20   30.26R WCI  20
$$

NCZ012>017-030>032-291000-
NORTH CENTRAL AND EASTERN NORTH CAROLINA

CITY           SKY/WX    TMP DP  RH WIND       PRES   REMARKS
ROANOKE RAPIDS FAIR      28  14  54 NW3       30.32R
RALEIGH        CLEAR     28  12  51 CALM      30.33R
ELIZABETH CITY CLEAR     26  14  60 W7        30.30R
AHOSKIE*       CLEAR     26  14  59 CALM      30.32R
EDENTON*       CLEAR     28  18  65 NW3       30.31R
CURRITUCK*     CLEAR     31   8  37 NW7G16    30.29R
KILL DEVIL HLS CLEAR     32   8  36 NW9G17    30.26R
MANTEO         CLEAR     32  11  41 N13G26    30.28R WCI  22
CAPE HATTERAS  CLEAR     33  12  41 N10G24    30.27R WCI  25
TARBORO*       FAIR      26  20  80 W3        30.34R
GOLDSBORO      CLEAR     29  23  77 NW3       30.31R
WASHINGTON     CLEAR     27  17  64 CALM      30.32R
GREENVILLE     CLEAR     27  23  86 CALM      30.33R
NEW BERN       CLEAR     30  15  53 N7        30.32R
WILMINGTON     CLEAR     31  18  58 N6        30.32R
$$

VAZ048-291000-
ELSEWHERE

CITY           SKY/WX    TMP DP  RH WIND       PRES   REMARKS
HARRISBURG PA  CLEAR     24   8  50 NW13      30.26R WCI  12
BALTIMORE      CLEAR     24   5  44 NW9       30.28R
ANNAPOLIS      CLEAR     28   8  43 NW8       30.28R
ANDREWS AFB    CLEAR     25   5  41 NW14      30.28R WCI  14
PHILADELPHIA   PTCLDY    26   5  40 NW10      30.23R WCI  16
HENDERSON NC   CLEAR     26  11  55 NW3       30.32R
GREENSBORO     CLEAR     27   8  44 N3        30.31R
ROCKY MOUNT    CLEAR     28  14  55 NW7       30.33R
$$

VAZ100-291000-
MARINE

STATION/POSITION TIME  TEMP    WIND        PRES    WAVE   SWELL
                       AIR SEA DIR/SP/G            HT/PER HT/PER
                 (UTC) (F)     (DEG/KT/KT) (MB)    (FT/S) (FT/S)
15NM E FENWICK I 0850   29 39              1022.0R   5/ 5
THOMAS POINT MD  0900                        N/A
STINGRAY PT      0900   31 44  330/ 17/ 21   N/A     2/ 3
CHESAPEAKE LGHT  0800   32     330/ 22/ 25 1024.6R
CAPE HENRY BUOY  0828      40                N/A     4/ 5
1ST LANDING BUOY 0900   33     330/ 21/ 25 1024.7R   3/ 3
OFFSHORE WE BUOY 0811      41                N/A     6/ 6   2/10
64NM E OF VA BCH 0850   35 55  330/ 21/ 25 1022.7R   6/ 6   2/ 9
44056 DUCK FRF   0811      42                N/A     5/ 6
CAPE LOOKOUT NC  0900   35     360/ 19/ 23 1025.2R
$$



USA.gov is the U.S. government's official web portal to all federal, state and local government web resources and services.